Regional Weather Roundup
Issued by NWS Green Bay, WI

Home | Current Version | Previous Version | Graphics & Text | Print | Product List | Glossary Off
Versions: 1 2 3 4 5 6 7 8 9 10 11 12 13 14 15 16 17 18 19 20 21 22 23 24 25 26 27 28 29 30 31 32 33 34 35 36 37 38 39 40 41 42 43 44 45 46 47 48 49 50

979
ASUS43 KGRB 241111
RWRGRB

NORTH-CENTRAL AND NORTHEAST WISCONSIN REGIONAL WEATHER ROUNDUP
NATIONAL WEATHER SERVICE GREEN BAY WI
600 AM CDT SUN JUL 24 2016

WIZ005-009-010>012-018-019-241200-
NORTH CENTRAL WISCONSIN

CITY           SKY/WX    TMP DP  RH WIND       PRES   REMARKS
IRONWOOD       CLOUDY    70  66  88 NW12      29.71R
MANITOWISH WTR LGT RAIN  67  67 100 CALM      29.75F
ARBOR VITAE    CLOUDY    69  68  94 SE15      29.74F
EAGLE RIVER    HVY RAIN  69  69  99 NW6G17    29.84F
LAND O LAKES   TSTM      69  68  98 SW3G20    29.84F
RHINELANDER    HVY RAIN  70  68  93 NW8G24    29.88R FOG
PHILLIPS       CLEAR     67  67  98 S7        29.78F
ANTIGO         CLOUDY    69  69 100 CALM      29.86R FOG
TOMAHAWK       LGT RAIN  68  66  95 CALM      29.82F
MERRILL        CLOUDY    70  70 100 CALM      29.83F FOG
$$

WIZ013-073-241200-
NORTHEAST WISCONSIN

CITY           SKY/WX    TMP DP  RH WIND       PRES   REMARKS
IRON MOUNTAIN  CLOUDY    69  67  93 CALM      29.82R FOG
MARINETTE      CLOUDY    72  71  97 CALM      29.82S
OCONTO         CLOUDY   N/A N/A N/A SW3       29.81S
$$

WIZ017-030-035>037-045-241200-
CENTRAL WISCONSIN

CITY           SKY/WX    TMP DP  RH WIND       PRES   REMARKS
MEDFORD        FOG       68  68 100 CALM      29.82F VSB 3/4
WAUSAU         CLOUDY    70  69  97 S6        29.81S FOG
MOSINEE        CLOUDY    70  70 100 SW3       29.85R FOG
MARSHFIELD     CLOUDY    71  69  93 CALM      29.81R FOG
WISC RAPIDS    CLOUDY    72  70  93 SW5       29.82F
STEVENS POINT  CLOUDY    69  69 100 CALM      29.83R FOG
WAUPACA        CLOUDY    73  73  99 S3        29.81F
SHAWANO        CLOUDY    73  70  91 CALM      29.83R
CLINTONVILLE   CLOUDY    72  70  94 S5        29.82R
WAUTOMA        CLOUDY    71  70  96 SE3       29.83R
$$

WIZ038-039-048-051-241200-
FOX VALLEY

CITY           SKY/WX    TMP DP  RH WIND       PRES   REMARKS
NWS GREEN BAY  CLOUDY    72  72 100 S7        29.82F
APPLETON       CLOUDY    72  72 100 S8        29.82S
OSHKOSH        CLOUDY    71  69  93 S7        29.83F
FOND DU LAC    CLOUDY    73  69  87 S8        29.84F
$$

WIZ022-050-052-241200-
EAST CENTRAL WISCONSIN

CITY           SKY/WX    TMP DP  RH WIND       PRES   REMARKS
EPHRAIM        CLOUDY    67  67  99 S6        29.82F
WASHINGTON ISL NOT AVBL
STURGEON BAY   CLOUDY    70  69  97 S9        29.83F
MANITOWOC      CLOUDY    69  68  96 S5        29.85R
SHEBOYGAN      CLOUDY    71  69  93 S6        29.86R
$$

LMZ563-521-522-541>543-241200-
LAKESHORE

STATION/POSITION TIME  TEMP    WIND        PRES    VSBY  WAVE
                       AIR SEA DIR/SP/G                  HT/PER
                 (UTC) (F)     (DEG/KT/KT) (MB)    (MI)  (FT/S)
SHEBOYGAN LKSHOR 1100   63     160/ 12/ 14 1011.6F
KEWAUNEE LKSHORE 1000   62     180/ 10/ 12 1010.0F
NORTHPORT PIER   1000   69     170/  4/  9 1010.2F
N MID LAKE BUOY  1050   70 69  210/ 14/ 17 1009.5F         1/ 3
S GREEN BAY BUOY 1000   74 75  200/ 10/ 14   N/A
CHAMBERS ISLAND  1000   72     190/  4/  8 1009.8F
MENOMINEE LKSHOR 1000   73     190/  7/ 10 1008.9F
$$




USA.gov is the U.S. government's official web portal to all federal, state and local government web resources and services.